Weather History for KOWB - September, 2013

Change the Weather History Date:

Tuesday, September 10, 2013

  Actual Average Record
Temperature  
Mean Temperature 82 °F -  
Max Temperature 91 °F 84 °F 100 °F (1964)
Min Temperature 72 °F 60 °F 47 °F (1943)
Cooling Degree Days 16    
Growing Degree Days 32 (Base 50)    
Moisture  
Dew Point 74 °F    
Average Humidity 82    
Maximum Humidity 100    
Minimum Humidity 53    
Precipitation  
Precipitation 0.00 in - - ()
Sea Level Pressure  
Sea Level Pressure 30.10 in    
Wind  
Wind Speed 6 mph (South)    
Max Wind Speed 10 mph    
Max Gust Speed -    
Visibility 7 miles    
Events Thunderstorm    
Averages and records for this station are not official NWS values.
T = Trace of Precipitation, MM = Missing Value Source: NWS Daily Summary

Daily Weather History Graph

Daily Weather History Graph

Search for Another Location

Airport or City:

Trip Planner

Search our weather history database for the weather conditions in past years. The results will help you decide how hot, cold, wet, or windy it might be!

Date:

Astronomy

Sep. 10, 2013 Rise Set
Actual Time 6:26 AM CDT 7:03 PM CDT
Civil Twilight 6:00 AM CDT 7:30 PM CDT
Nautical Twilight 5:28 AM CDT 8:01 PM CDT
Astronomical Twilight 4:56 AM CDT 8:33 PM CDT
Moon 11:45 AM CDT (9/10) 10:13 PM CDT (9/10)
Length of Visible Light 13h 30m
Length of Day
12h 37m
Waxing Crescent, 28% of the Moon is Illuminated
Sep 10
Waxing Crescent
Sep 12
First Quarter
Sep 19
Full
Sep 26
Last Quarter
Oct 4
New

Hourly Weather History & Observations

Time (CDT) Temp. Heat Index Dew Point Humidity Pressure Visibility Wind Dir Wind Speed Gust Speed Precip Events Conditions
12:56 AM 75.9 °F - 74.8 °F 96% 30.03 in 9.0 mi SSE 4.6 mph - N/A   Clear
1:56 AM 74.8 °F - 74.8 °F 100% 30.04 in 7.0 mi South 5.8 mph - N/A   Clear
2:56 AM 73.9 °F - 73.9 °F 100% 30.05 in 6.0 mi South 5.8 mph - N/A   Clear
3:56 AM 73.9 °F - 73.9 °F 100% 30.06 in 6.0 mi SSE 4.6 mph - N/A   Clear
4:56 AM 72.9 °F - 72.9 °F 100% 30.07 in 5.0 mi SE 4.6 mph - N/A   Clear
5:56 AM 72.9 °F - 72.9 °F 100% 30.08 in 4.0 mi South 4.6 mph - N/A   Clear
6:56 AM 72.0 °F - 72.0 °F 100% 30.11 in 4.0 mi SE 4.6 mph - N/A   Clear
7:56 AM 74.8 °F - 73.9 °F 97% 30.12 in 6.0 mi South 6.9 mph - N/A   Scattered Clouds
8:56 AM 79.0 °F - 74.8 °F 87% 30.13 in 7.0 mi South 9.2 mph - N/A   Clear
9:56 AM 81.0 °F 86.7 °F 74.8 °F 82% 30.14 in 7.0 mi South 6.9 mph - N/A   Scattered Clouds
10:56 AM 86.0 °F 96.0 °F 75.9 °F 72% 30.12 in 7.0 mi South 8.1 mph - N/A   Partly Cloudy
11:56 AM 88.9 °F 102.7 °F 77.9 °F 70% 30.13 in 7.0 mi SSW 6.9 mph - N/A   Scattered Clouds
12:56 PM 88.9 °F 101.5 °F 77.0 °F 68% 30.13 in 6.0 mi WSW 10.4 mph - N/A   Haze
1:56 PM 90.9 °F 102.4 °F 75.9 °F 61% 30.11 in 6.0 mi SSW 5.8 mph - N/A   Haze
2:56 PM 91.9 °F 100.1 °F 72.9 °F 53% 30.08 in 6.0 mi West 5.8 mph - N/A   Haze
3:56 PM 91.9 °F 101.3 °F 73.9 °F 55% 30.07 in 6.0 mi WSW 5.8 mph - N/A   Haze
4:56 PM 91.9 °F 101.3 °F 73.9 °F 55% 30.07 in 7.0 mi SSW 5.8 mph - N/A   Haze
5:56 PM 90.0 °F 100.2 °F 74.8 °F 61% 30.09 in 7.0 mi SW 5.8 mph - N/A   Scattered Clouds
6:56 PM 84.9 °F 91.4 °F 72.9 °F 67% 30.09 in 7.0 mi ESE 5.8 mph - N/A   Haze
7:06 PM 84.2 °F 88.4 °F 69.8 °F 62% 30.11 in 10.0 mi East 6.9 mph - N/A Thunderstorm Scattered Clouds
7:56 PM 81.9 °F 87.7 °F 73.9 °F 77% 30.11 in 10.0 mi Variable 3.5 mph - N/A Thunderstorm Scattered Clouds
8:56 PM 79.0 °F - 72.0 °F 79% 30.15 in 10.0 mi SE 8.1 mph - N/A Thunderstorm Thunderstorm
9:40 PM 75.2 °F - 73.4 °F 94% 30.14 in 10.0 mi South 6.9 mph - 0.00 in   Clear
9:56 PM 75.9 °F - 72.9 °F 90% 30.13 in 10.0 mi SSW 5.8 mph - 0.00 in   Clear
10:56 PM 74.8 °F - 73.9 °F 97% 30.12 in 10.0 mi South 9.2 mph - N/A   Clear
11:56 PM 73.9 °F - 72.9 °F 96% 30.13 in 10.0 mi SSE 5.8 mph - N/A   Clear